This is the latest recevied weather packets stored in our database for station/object KD9NSC. If no packets are shown the sender has not sent any weather packets the latest 10 day(s).
| Time | Temp. | Humidity | Pressure | Rain* | Wind** | Luminosity | Snow |
|---|---|---|---|---|---|---|---|
| 1777130192 | 7.78° C | 87% | 1017.1 hPa | 0 mm | - | 67 W/m² | - |
| 1777129888 | 7.78° C | 88% | 1017.1 hPa | 0 mm | - | 64 W/m² | - |
| 1777129583 | 7.78° C | 87% | 1016.9 hPa | 0 mm | - | 65 W/m² | - |
| 1777129282 | 7.78° C | 87% | 1017.1 hPa | 0 mm | - | 66 W/m² | - |
| 1777128979 | 7.78° C | 87% | 1017.1 hPa | 0 mm | - | 68 W/m² | - |
| 1777128674 | 7.78° C | 88% | 1017.1 hPa | 0 mm | - | 62 W/m² | - |
| 1777128373 | 7.78° C | 89% | 1017.2 hPa | 0 mm | - | 63 W/m² | - |
| 1777128069 | 7.78° C | 89% | 1017.2 hPa | 0 mm | - | 58 W/m² | - |
| 1777127767 | 7.22° C | 90% | 1017.3 hPa | 0 mm | - | 54 W/m² | - |
| 1777127464 | 7.22° C | 91% | 1017.2 hPa | 0 mm | - | 54 W/m² | - |
| 1777127160 | 7.22° C | 91% | 1017.3 hPa | 0 mm | - | 45 W/m² | - |
| 1777126855 | 6.67° C | 91% | 1017.4 hPa | 0 mm | - | 49 W/m² | - |
| 1777126552 | 6.67° C | 92% | 1017.3 hPa | 0 mm | - | 48 W/m² | - |
| 1777126248 | 6.67° C | 92% | 1017.3 hPa | 0 mm | - | 46 W/m² | - |
| 1777125944 | 6.67° C | 92% | 1017.4 hPa | 0 mm | - | 43 W/m² | - |
| 1777125640 | 6.67° C | 93% | 1017.5 hPa | 0 mm | - | 40 W/m² | - |
| 1777125337 | 6.67° C | 93% | 1017.5 hPa | 0 mm | - | 45 W/m² | - |
| 1777125037 | 6.67° C | 94% | 1017.4 hPa | 0 mm | - | 35 W/m² | - |
| 1777124733 | 6.67° C | 94% | 1017.8 hPa | 0 mm | - | 34 W/m² | - |
| 1777124429 | 6.67° C | 94% | 1017.6 hPa | 0 mm | - | 30 W/m² | - |
| 1777124126 | 6.67° C | 94% | 1017.6 hPa | 0 mm | - | 27 W/m² | - |
| 1777123823 | 6.67° C | 95% | 1017.6 hPa | 0 mm | - | 29 W/m² | - |
| 1777123519 | 6.67° C | 95% | 1017.5 hPa | 0 mm | - | 25 W/m² | - |
| 1777123215 | 6.67° C | 95% | 1017.5 hPa | 0 mm | - | 24 W/m² | - |
| 1777122911 | 6.67° C | 95% | 1017.4 hPa | 0 mm | - | 22 W/m² | - |
* Rain latest hour (hover to see other rain measurements)
** Current wind speed in m/s (hover to see current wind gust speed)